This is the latest recevied weather packets stored in our database for station/object KC3VCX. If no packets are shown the sender has not sent any weather packets the latest 10 day(s).
| Time | Temp. | Humidity | Pressure | Rain* | Wind** | Luminosity | Snow |
|---|---|---|---|---|---|---|---|
| 1777092580 | 17.78° C | 66% | 1009.8 hPa | 0 mm | - | 0 W/m² | - |
| 1777092276 | 17.78° C | 64% | 1009.7 hPa | 0 mm | - | 0 W/m² | - |
| 1777091972 | 17.78° C | 65% | 1009.7 hPa | 0 mm | - | 0 W/m² | - |
| 1777091662 | 17.78° C | 64% | 1009.6 hPa | 0 mm | - | 0 W/m² | - |
| 1777091358 | 17.78° C | 64% | 1009.9 hPa | 0 mm | - | 0 W/m² | - |
| 1777091058 | 17.78° C | 65% | 1009.7 hPa | 0 mm | - | 0 W/m² | - |
| 1777090755 | 17.78° C | 65% | 1009.9 hPa | 0 mm | - | 0 W/m² | - |
| 1777090453 | 17.78° C | 66% | 1009.9 hPa | 0 mm | - | 0 W/m² | - |
| 1777090148 | 17.78° C | 65% | 1010 hPa | 0 mm | - | 0 W/m² | - |
| 1777089843 | 17.22° C | 66% | 1009.9 hPa | 0 mm | - | 0 W/m² | - |
| 1777089539 | 17.78° C | 65% | 1009.9 hPa | 0 mm | - | 0 W/m² | - |
| 1777089234 | 17.78° C | 65% | 1009.9 hPa | 0 mm | - | 0 W/m² | - |
| 1777088930 | 18.33° C | 64% | 1009.8 hPa | 0 mm | - | 0 W/m² | - |
| 1777088624 | 18.89° C | 63% | 1009.9 hPa | 0 mm | - | 0 W/m² | - |
| 1777088318 | 18.89° C | 62% | 1009.9 hPa | 0 mm | - | 0 W/m² | - |
| 1777088013 | 19.44° C | 59% | 1010 hPa | 0 mm | - | 0 W/m² | - |
| 1777087708 | 18.89° C | 59% | 1010 hPa | 0 mm | - | 0 W/m² | - |
| 1777087402 | 18.89° C | 61% | 1010 hPa | 0 mm | - | 0 W/m² | - |
| 1777087098 | 18.89° C | 59% | 1010.2 hPa | 0 mm | - | 0 W/m² | - |
| 1777086793 | 19.44° C | 59% | 1009.9 hPa | 0 mm | - | 0 W/m² | - |
| 1777086488 | 19.44° C | 59% | 1010 hPa | 0 mm | - | 0 W/m² | - |
| 1777086185 | 19.44° C | 58% | 1010.1 hPa | 0 mm | - | 0 W/m² | - |
| 1777085880 | 20° C | 57% | 1010 hPa | 0 mm | - | 0 W/m² | - |
| 1777085576 | 20° C | 56% | 1010.1 hPa | 0 mm | - | 0 W/m² | - |
| 1777085272 | 20.56° C | 55% | 1010.1 hPa | 0 mm | - | 0 W/m² | - |
* Rain latest hour (hover to see other rain measurements)
** Current wind speed in m/s (hover to see current wind gust speed)